Home > Time Zones > World Clock > Weather > U.S.A. > Adak > Past weeks

Flag for U.S.A. Weather past 2 weeks in Adak, Alaska, U.S.A.

Now
43 °F

Mostly cloudy.


Feels Like: 36 °F
Forecast: 33 / 47 °F
Wind: 13 mph from West

Location: Adak

Current Time: Oct 25, 2014 at 11:12:28 AM

Latest Report: Oct 25, 2014 at 10:36 AM


Visibility: 10 mi

Pressure: 30.07 "Hg

Humidity: 76%

Dew point: 36 °F

Location of AdakLocation

Historic Weather in Adak — Graph

°F

Adak temperature yesterday

Maximum temperature yesterday: 46 °F (at 12:16 AM)
Minimum temperature yesterday: 30 °F (at 11:36 PM)
Average temperature yesterday: 42 °F

Past Weeks' High & Low Weather Summary

 TemperatureHumidityPressure
High52 °F (Oct 19, 4:36 PM)87% (Oct 13, 10:36 AM)30.49 "Hg (Oct 13, 10:36 AM)
Low28 °F (Oct 13, 6:16 AM)43% (Oct 12, 6:36 PM)29.02 "Hg (Oct 16, 2:16 AM)
Average43 °F70%29.98 "Hg
* Reported Oct 10 9:16 AM — Oct 25 9:56 AM, Adak, Weather by CustomWeather, © 2014

Note: Actual official high and low records may vary slightly from our data, if they occured in-between our weather recording intervals... More about our weather records

Advertising

Adak weather history for previous 24 hours

 ConditionsComfort  
Time TempWeatherWind HumidityBarometerVisibility
9:56 AM
Oct 25
43 °FOvercast.13 mph76%30.06 "Hg10 mi
9:36 AM43 °FOvercast.3 mph76%30.07 "Hg10 mi
8:56 AM43 °FOvercast.5 mph71%30.06 "Hg10 mi
8:36 AM43 °FOvercast.3 mph71%30.06 "Hg10 mi
8:16 AM43 °FMostly cloudy.3 mph71%30.06 "Hg10 mi
7:56 AM43 °FMostly cloudy.5 mph71%30.06 "Hg10 mi
7:36 AM43 °FMostly cloudy.7 mph76%30.06 "Hg10 mi
7:16 AM41 °FOvercast.5 mph76%30.06 "Hg10 mi
6:56 AM41 °FMostly cloudy.8 mph76%30.06 "Hg10 mi
6:36 AM41 °FOvercast.7 mph76%30.05 "Hg10 mi
6:16 AM39 °FPassing clouds.6 mph75%30.05 "Hg10 mi
5:56 AM37 °FPassing clouds.7 mph75%30.06 "Hg10 mi
5:36 AM37 °FPassing clouds.5 mph70%30.06 "Hg10 mi
5:16 AM37 °FPassing clouds.13 mph75%30.06 "Hg10 mi
4:56 AM37 °FClear.12 mph75%30.05 "Hg10 mi
4:36 AM37 °FPassing clouds.10 mph75%30.06 "Hg10 mi
4:16 AM39 °FPassing clouds.13 mph70%30.06 "Hg10 mi
3:56 AM39 °FPassing clouds.14 mph75%30.06 "Hg10 mi
3:36 AM37 °FClear.10 mph81%30.07 "Hg10 mi
2:56 AM37 °FClear.7 mph75%30.07 "Hg10 mi
2:36 AM36 °FPassing clouds.7 mph81%30.08 "Hg10 mi
2:16 AM36 °FClear.9 mph75%30.08 "Hg10 mi
1:56 AM37 °FClear.8 mph75%30.08 "Hg10 mi
1:36 AM36 °FClear.8 mph81%30.08 "Hg10 mi
1:16 AM37 °FClear.6 mph75%30.08 "Hg10 mi
12:56 AM36 °FClear.6 mph75%30.08 "Hg10 mi
12:36 AM34 °FClear.7 mph81%30.08 "Hg10 mi
12:16 AM34 °FClear.5 mph75%30.08 "Hg10 mi
11:56 PM
Oct 24
34 °FClear.No wind75%30.08 "Hg10 mi
11:36 PM30 °FClear.3 mph80%30.08 "Hg10 mi
11:16 PM34 °FClear.No wind75%30.08 "Hg10 mi
10:56 PM32 °FClear.No wind80%30.09 "Hg10 mi
10:36 PM32 °FClear.No wind80%30.08 "Hg10 mi
9:56 PM34 °FClear.No wind70%30.09 "Hg10 mi
9:36 PM34 °FClear.No wind75%30.09 "Hg10 mi
8:56 PM34 °FClear.3 mph75%30.08 "Hg10 mi
8:36 PM34 °FClear.No wind75%30.08 "Hg10 mi
8:16 PM36 °FSunny.No wind70%30.08 "Hg10 mi
7:56 PM37 °FSunny.No wind65%30.07 "Hg10 mi
7:36 PM37 °FSunny.5 mph65%30.07 "Hg10 mi
7:16 PM39 °FSunny.6 mph61%30.07 "Hg10 mi
6:56 PM43 °FSunny.6 mph61%30.06 "Hg10 mi
6:36 PM43 °FSunny.8 mph61%30.06 "Hg10 mi
6:16 PM43 °FSunny.10 mph57%30.05 "Hg10 mi
5:56 PMN/A10 mphN/A30.05 "HgN/A
5:36 PM45 °FScattered clouds.12 mph57%30.06 "HgN/A
5:16 PM45 °FScattered clouds.13 mph57%30.05 "HgN/A
4:56 PM45 °FMostly cloudy.12 mph57%30.05 "HgN/A
4:36 PM45 °FMore clouds than sun.13 mph57%30.05 "HgN/A
4:16 PM45 °FMore clouds than sun.12 mph57%30.05 "HgN/A
3:56 PM45 °FOvercast.13 mph61%30.05 "HgN/A
3:36 PM45 °FOvercast.10 mph57%30.05 "HgN/A
2:56 PM45 °FOvercast.13 mph57%30.07 "HgN/A
2:36 PM45 °FMostly cloudy.13 mph61%30.07 "HgN/A
2:16 PM45 °FMostly cloudy.12 mph61%30.07 "HgN/A
1:56 PM43 °FOvercast.13 mph71%30.07 "HgN/A
1:36 PM43 °FMostly cloudy.12 mph71%30.07 "HgN/A
1:16 PM43 °FMostly cloudy.13 mph76%30.07 "HgN/A
12:56 PM43 °FOvercast.15 mph76%30.07 "HgN/A
12:36 PM43 °FMostly cloudy.14 mph76%30.07 "HgN/A
12:16 PM43 °FOvercast.10 mph81%30.08 "HgN/A
11:56 AM43 °FOvercast.8 mph81%30.08 "HgN/A
11:36 AM43 °FMostly cloudy.13 mph81%30.08 "HgN/A
11:16 AM43 °FMostly cloudy.10 mph81%30.08 "HgN/A
Weather by CustomWeather, © 2014

See weather overviewHow to use our weather pages